Flag for Turkey Weather past 2 weeks in Ankara, Turkey

Now
52 °F

Scattered clouds.


Feels Like: 49 °F
Forecast: 50 / 65 °F
Wind: 7 mph from Northeast

Location: Ankara / Esenboga

Current Time: Oct 26, 2014 at 8:25:22 AM

Latest Report: Oct 26, 2014 at 7:50 AM


Visibility: N/A

Pressure: 30.07 "Hg

Humidity: 94%

Dew point: 50 °F

Location of AnkaraLocation

Historic Weather in Ankara — Graph

°F

Ankara temperature yesterday

Maximum temperature yesterday: 59 °F (at 1:20 PM)
Minimum temperature yesterday: 45 °F (at 6:20 AM)
Average temperature yesterday: 53 °F

Past Weeks' High & Low Weather Summary

 TemperatureHumidityPressure
High72 °F (Oct 11, 12:20 PM)100% (Oct 13, 6:50 AM)30.27 "Hg (Oct 13, 6:50 AM)
Low28 °F (Oct 20, 3:50 AM)22% (Oct 21, 2:50 PM)29.89 "Hg (Oct 18, 12:50 PM)
Average52 °F74%30.04 "Hg
* Reported Oct 11 8:20 AM — Oct 26 7:20 AM, Ankara, Weather by CustomWeather, © 2014

Note: Actual official high and low records may vary slightly from our data, if they occured in-between our weather recording intervals... More about our weather records

Advertising

Ankara weather history for previous 24 hours

 ConditionsComfort  
Time TempWeatherWind HumidityBarometerVisibility
7:20 AM
Oct 26
50 °FScattered clouds.7 mph94%30.04 "HgN/A
6:50 AM50 °FScattered clouds.3 mph94%30.04 "HgN/A
6:20 AM50 °FScattered clouds.5 mph94%30.04 "HgN/A
5:50 AM50 °FPassing clouds.2 mph94%30.04 "HgN/A
5:20 AM50 °FPassing clouds.7 mph94%30.04 "HgN/A
4:50 AM50 °FPassing clouds.7 mph94%30.04 "HgN/A
4:20 AM52 °FPartly cloudy.7 mph88%30.04 "HgN/A
3:50 AM52 °FSprinkles. Passing clouds.6 mph94%30.04 "HgN/A
3:20 AM52 °FPassing clouds.7 mph88%30.01 "HgN/A
3:50 AM52 °FPassing clouds.7 mph94%30.01 "HgN/A
3:20 AM52 °FPassing clouds.5 mph88%30.01 "HgN/A
2:50 AM50 °FPassing clouds.2 mph94%30.01 "HgN/A
2:20 AM50 °FPassing clouds.1 mph94%30.01 "HgN/A
1:50 AM50 °FPassing clouds.3 mph94%30.01 "HgN/A
1:20 AM52 °FPassing clouds.2 mph88%30.01 "HgN/A
12:50 AM52 °FPassing clouds.3 mph88%30.01 "HgN/A
12:20 AM50 °FPassing clouds.5 mph94%30.01 "HgN/A
11:50 PM
Oct 25
52 °FPartly cloudy.6 mph88%30.01 "HgN/A
11:20 PM52 °FPassing clouds.3 mph94%30.01 "HgN/A
10:50 PM52 °FPartly cloudy.3 mph94%30.01 "HgN/A
10:20 PM54 °FPartly cloudy.5 mph82%30.01 "HgN/A
9:50 PM52 °FPassing clouds.6 mph94%30.01 "HgN/A
9:20 PM54 °FPassing clouds.5 mph82%30.01 "HgN/A
8:50 PM54 °FPartly cloudy.6 mph88%30.01 "HgN/A
8:20 PM54 °FPartly cloudy.5 mph88%30.01 "HgN/A
7:50 PM57 °FPartly cloudy.3 mph67%30.01 "HgN/A
7:20 PM57 °FPartly cloudy.6 mph67%30.01 "HgN/A
6:50 PM57 °FBroken clouds.12 mph72%30.01 "HgN/A
6:20 PM57 °FBroken clouds.12 mph67%29.98 "HgN/A
5:50 PM57 °FBroken clouds.9 mph72%29.98 "HgN/A
5:20 PM59 °FPartly sunny.9 mph68%29.98 "HgN/A
4:50 PM59 °FPartly sunny.10 mph72%29.98 "HgN/A
4:20 PM59 °FPartly sunny.10 mph72%29.98 "HgN/A
3:50 PM59 °FSprinkles. Partly sunny.3 mph77%29.98 "HgN/A
3:20 PM59 °FSprinkles. Partly sunny.8 mph77%29.98 "HgN/A
2:50 PM59 °FBroken clouds.7 mph72%29.98 "HgN/A
2:20 PM59 °FBroken clouds.5 mph68%29.98 "HgN/A
1:50 PM59 °FPartly sunny.5 mph72%29.98 "HgN/A
1:20 PM59 °FPartly sunny.3 mph72%29.98 "HgN/A
12:50 PM57 °FPartly sunny.3 mph72%30.01 "HgN/A
12:20 PM57 °FPartly sunny.1 mph72%30.01 "HgN/A
11:50 AM57 °FPartly sunny.2 mph77%30.01 "HgN/A
11:20 AM54 °FPartly sunny.5 mph94%30.01 "Hg4 mi
10:50 AM54 °FPartly sunny.2 mph94%30.01 "Hg4 mi
10:20 AM52 °FSprinkles. Partly sunny.1 mph94%30.01 "Hg4 mi
9:50 AM50 °FSprinkles. Partly sunny.3 mph100%30.01 "Hg4 mi
9:20 AM50 °FSprinkles. Broken clouds.2 mph94%30.01 "Hg4 mi
8:50 AM48 °FBroken clouds.2 mph94%30.01 "Hg4 mi
8:20 AM46 °FBroken clouds.5 mph100%30.01 "HgN/A
Weather by CustomWeather, © 2014

See weather overviewHow to use our weather pages